Weather History for KGEY - November, 2013

Change the Weather History Date:

Thursday, November 7, 2013

  Actual Average Record
Temperature  
Mean Temperature 34 °F 36 °F  
Max Temperature 43 °F 49 °F 71 °F (2012)
Min Temperature 24 °F 23 °F 0 °F (2003)
Degree Days  
Heating Degree Days 31 29  
Month to date heating degree days 195 192  
Since 1 July heating degree days 1004 1014  
Cooling Degree Days 0 0  
Month to date cooling degree days 0 0  
Year to date cooling degree days 1005 669  
Moisture  
Dew Point 25 °F    
Average Humidity 69    
Maximum Humidity 92    
Minimum Humidity 45    
Precipitation  
Precipitation 0.00 in 0.01 in 0.01 in (2008)
Month to date precipitation T 0.06  
Year to date precipitation 4.85 6.99  
Sea Level Pressure  
Sea Level Pressure 30.18 in    
Wind  
Wind Speed 2 mph (WSW)    
Max Wind Speed 12 mph    
Max Gust Speed 15 mph    
Visibility 10 miles    
Events      
T = Trace of Precipitation, MM = Missing Value Source: NWS Daily Summary

Daily Weather History Graph

Daily Weather History Graph

Search for Another Location

Airport or City:

Trip Planner

Search our weather history database for the weather conditions in past years. The results will help you decide how hot, cold, wet, or windy it might be!

Date:

Astronomy

Nov. 07, 2013 Rise Set
Actual Time 6:58 AM MST 4:53 PM MST
Civil Twilight 6:27 AM MST 5:23 PM MST
Nautical Twilight 5:52 AM MST 5:58 PM MST
Astronomical Twilight 5:18 AM MST 6:32 PM MST
Moon 11:11 AM MST (11/7) 9:06 PM MST (11/7)
Length of Visible Light 10h 56m
Length of Day
9h 54m
Waxing Crescent, 23% of the Moon is Illuminated
Nov 7
Waxing Crescent
Nov 9
First Quarter
Nov 17
Full
Nov 25
Last Quarter
Dec 2
New

Hourly Weather History & Observations

Time (MST) Temp. Windchill Dew Point Humidity Pressure Visibility Wind Dir Wind Speed Gust Speed Precip Events Conditions
12:53 AM 27.0 °F - 21.9 °F 81% 30.38 in 10.0 mi Calm Calm - N/A   Overcast
1:53 AM 28.0 °F - 23.0 °F 81% 30.37 in 10.0 mi Calm Calm - N/A   Overcast
2:53 AM 28.0 °F 24.2 °F 23.0 °F 81% 30.36 in 10.0 mi North 3.5 mph - N/A   Overcast
3:53 AM 27.0 °F 23.0 °F 23.0 °F 85% 30.36 in 10.0 mi West 3.5 mph - N/A   Scattered Clouds
4:53 AM 27.0 °F - 21.9 °F 81% 30.39 in 10.0 mi Calm Calm - N/A   Mostly Cloudy
5:53 AM 25.0 °F - 21.9 °F 88% 30.40 in 10.0 mi Calm Calm - N/A   Clear
6:53 AM 25.0 °F - 21.9 °F 88% 30.41 in 10.0 mi Calm Calm - N/A   Clear
7:53 AM 25.0 °F - 23.0 °F 92% 30.41 in 10.0 mi Calm Calm - N/A   Clear
8:53 AM 30.0 °F 26.5 °F 24.1 °F 79% 30.38 in 10.0 mi SSE 3.5 mph - N/A   Clear
9:53 AM 35.1 °F 32.2 °F 24.1 °F 64% 30.36 in 10.0 mi SSE 3.5 mph - N/A   Clear
10:53 AM 39.9 °F 35.8 °F 23.0 °F 51% 30.31 in 10.0 mi South 5.8 mph - N/A   Clear
11:53 AM 39.9 °F 34.5 °F 21.9 °F 49% 30.26 in 10.0 mi South 8.1 mph - N/A   Clear
12:53 PM 42.1 °F 39.2 °F 23.0 °F 47% 30.20 in 10.0 mi South 4.6 mph - N/A   Clear
1:53 PM 42.1 °F - 24.1 °F 49% 30.15 in 10.0 mi Calm Calm - N/A   Clear
2:53 PM 43.0 °F - 25.0 °F 49% 30.11 in 10.0 mi Calm Calm - N/A   Clear
3:53 PM 43.0 °F - 25.0 °F 49% 30.07 in 10.0 mi Calm Calm - N/A   Clear
4:53 PM 41.0 °F - 27.0 °F 57% 30.03 in 10.0 mi Calm Calm - N/A   Clear
5:53 PM 39.0 °F 36.8 °F 26.1 °F 60% 30.01 in 10.0 mi NW 3.5 mph - N/A   Clear
6:53 PM 34.0 °F - 26.1 °F 73% 29.99 in 10.0 mi Calm Calm - N/A   Mostly Cloudy
7:53 PM 34.0 °F 29.8 °F 27.0 °F 75% 29.97 in 10.0 mi NNW 4.6 mph - N/A   Overcast
8:53 PM 36.0 °F 30.3 °F 28.0 °F 73% 29.93 in 10.0 mi WNW 6.9 mph - N/A   Overcast
9:53 PM 39.0 °F 36.8 °F 30.0 °F 70% 29.85 in 10.0 mi North 3.5 mph - N/A   Partly Cloudy
10:53 PM 37.0 °F 34.5 °F 30.0 °F 76% 29.83 in 10.0 mi NW 3.5 mph - N/A   Overcast
11:53 PM 37.0 °F 34.5 °F 30.0 °F 76% 29.79 in 10.0 mi SW 3.5 mph - N/A   Mostly Cloudy